iso_date,epoch_date,Year,Hour,Min,DOY,POS_DOY,Lat,Lon,BP,Ts,Ta,has_bp,has_ts,has_ta,BuoyID,Buoy_Type,Buoy_Owner,Logistics,Hemisphere
2016-09-29T17:25:26Z,1475169926,2016,17,26,273.726,273.726,72.7508,-150.8078,1019.0,18.85,-999.0,yes,yes,no,300234063320260,BD2GI,AOML,USCG_HEALY,North
2016-09-29T18:00:00Z,1475172000,2016,18,0,273.75,273.75,72.8022,-151.1324,1019.0,15.12,-999.0,yes,yes,no,300234063320260,BD2GI,AOML,USCG_HEALY,North
2016-09-29T19:00:28Z,1475175629,2016,19,0,273.792,273.792,72.898,-151.7386,1020.4,7.84,-999.0,yes,yes,no,300234063320260,BD2GI,AOML,USCG_HEALY,North
2016-09-29T19:59:31Z,1475179171,2016,20,0,273.833,273.833,72.9986,-152.3804,1020.9,6.6,-999.0,yes,yes,no,300234063320260,BD2GI,AOML,USCG_HEALY,North
2016-09-29T21:00:00Z,1475182800,2016,21,0,273.875,273.875,73.1014,-153.03979,1021.1,10.61,-999.0,yes,yes,no,300234063320260,BD2GI,AOML,USCG_HEALY,North
2016-09-29T22:00:28Z,1475186429,2016,22,0,273.917,273.917,73.1996,-153.6734,1020.9,12.93,-999.0,yes,yes,no,300234063320260,BD2GI,AOML,USCG_HEALY,North
2016-09-29T22:59:31Z,1475189971,2016,23,0,273.958,273.958,73.1464,-154.19679,1021.2,10.2,-999.0,yes,yes,no,300234063320260,BD2GI,AOML,USCG_HEALY,North
2016-09-30T00:00:00Z,1475193600,2016,0,0,274.0,274.0,73.0592,-154.5508,1021.2,6.98,-999.0,yes,yes,no,300234063320260,BD2GI,AOML,USCG_HEALY,North
2016-09-30T01:00:28Z,1475197229,2016,1,0,274.042,274.042,72.9728,-154.89999,1021.0,5.34,-999.0,yes,yes,no,300234063320260,BD2GI,AOML,USCG_HEALY,North
2016-09-30T01:59:31Z,1475200771,2016,2,0,274.083,274.083,72.8798,-155.2738,1020.7,4.31,-999.0,yes,yes,no,300234063320260,BD2GI,AOML,USCG_HEALY,North
2016-09-30T03:00:00Z,1475204400,2016,3,0,274.125,274.125,72.7816,-155.666,1020.5,3.94,-999.0,yes,yes,no,300234063320260,BD2GI,AOML,USCG_HEALY,North
2016-09-30T04:00:28Z,1475208029,2016,4,0,274.167,274.167,72.6776,-156.0796,1020.5,4.04,-999.0,yes,yes,no,300234063320260,BD2GI,AOML,USCG_HEALY,North
2016-09-30T04:59:31Z,1475211571,2016,5,0,274.208,274.208,72.5434,-156.41,1020.7,4.07,-999.0,yes,yes,no,300234063320260,BD2GI,AOML,USCG_HEALY,North
2016-09-30T06:00:00Z,1475215200,2016,6,0,274.25,274.25,72.4152,-156.7874,1020.0,3.49,-999.0,yes,yes,no,300234063320260,BD2GI,AOML,USCG_HEALY,North
2016-09-30T07:00:28Z,1475218829,2016,7,0,274.292,274.292,72.2546,-156.9718,1019.3,3.01,-999.0,yes,yes,no,300234063320260,BD2GI,AOML,USCG_HEALY,North
2016-09-30T07:59:31Z,1475222371,2016,8,0,274.333,274.333,72.0944,-157.1548,1019.3,3.39,-999.0,yes,yes,no,300234063320260,BD2GI,AOML,USCG_HEALY,North
2016-09-30T09:00:00Z,1475226000,2016,9,0,274.375,274.375,71.9478,-157.39,1019.8,3.63,-999.0,yes,yes,no,300234063320260,BD2GI,AOML,USCG_HEALY,North
2016-09-30T10:00:28Z,1475229629,2016,10,0,274.417,274.417,71.8508,-157.8172,1020.2,3.42,-999.0,yes,yes,no,300234063320260,BD2GI,AOML,USCG_HEALY,North
2016-09-30T10:59:31Z,1475233171,2016,11,0,274.458,274.458,71.7546,-158.2394,1020.8,3.15,-999.0,yes,yes,no,300234063320260,BD2GI,AOML,USCG_HEALY,North
2016-09-30T12:00:00Z,1475236800,2016,12,0,274.5,274.5,71.6478,-158.70641,1021.4,3.08,-999.0,yes,yes,no,300234063320260,BD2GI,AOML,USCG_HEALY,North
2016-09-30T13:00:28Z,1475240429,2016,13,0,274.542,274.542,71.5328,-159.20441,1021.6,3.19,-999.0,yes,yes,no,300234063320260,BD2GI,AOML,USCG_HEALY,North
2016-09-30T13:59:31Z,1475243971,2016,14,0,274.583,274.583,71.4188,-159.6956,1021.9,3.32,-999.0,yes,yes,no,300234063320260,BD2GI,AOML,USCG_HEALY,North
2016-09-30T15:00:00Z,1475247600,2016,15,0,274.625,274.625,71.3024,-160.1962,1022.0,3.42,-999.0,yes,yes,no,300234063320260,BD2GI,AOML,USCG_HEALY,North
2016-09-30T16:00:28Z,1475251229,2016,16,0,274.667,274.667,71.1844,-160.6992,1022.0,3.56,-999.0,yes,yes,no,300234063320260,BD2GI,AOML,USCG_HEALY,North
2016-09-30T16:59:31Z,1475254771,2016,17,0,274.708,274.708,71.1542,-160.79601,1022.7,2.06,-999.0,yes,yes,no,300234063320260,BD2GI,AOML,USCG_HEALY,North
2016-09-30T18:00:00Z,1475258400,2016,18,0,274.75,274.75,71.1546,-160.7524,1022.7,1.75,-999.0,yes,yes,no,300234063320260,BD2GI,AOML,USCG_HEALY,North
2016-09-30T19:00:28Z,1475262029,2016,19,0,274.792,274.792,71.154,-160.70779,1022.8,1.61,-999.0,yes,yes,no,300234063320260,BD2GI,AOML,USCG_HEALY,North
2016-09-30T19:59:31Z,1475265571,2016,20,0,274.833,274.833,71.1522,-160.6644,1022.9,1.58,-999.0,yes,yes,no,300234063320260,BD2GI,AOML,USCG_HEALY,North
2016-09-30T21:00:00Z,1475269200,2016,21,0,274.875,274.875,71.15,-160.623,1022.9,1.61,-999.0,yes,yes,no,300234063320260,BD2GI,AOML,USCG_HEALY,North
2016-09-30T22:00:28Z,1475272829,2016,22,0,274.917,274.917,71.1472,-160.5842,1023.1,1.61,-999.0,yes,yes,no,300234063320260,BD2GI,AOML,USCG_HEALY,North
2016-09-30T22:59:31Z,1475276371,2016,23,0,274.958,274.958,71.145,-160.5452,1023.0,1.61,-999.0,yes,yes,no,300234063320260,BD2GI,AOML,USCG_HEALY,North
2016-10-01T00:00:00Z,1475280000,2016,0,0,275.0,275.0,71.1428,-160.5054,1022.8,1.65,-999.0,yes,yes,no,300234063320260,BD2GI,AOML,USCG_HEALY,North
2016-10-01T01:00:28Z,1475283629,2016,1,0,275.042,275.042,71.1408,-160.4626,1022.2,1.68,-999.0,yes,yes,no,300234063320260,BD2GI,AOML,USCG_HEALY,North
2016-10-01T01:59:31Z,1475287171,2016,2,0,275.083,275.083,71.1388,-160.4196,1021.9,1.3,-999.0,yes,yes,no,300234063320260,BD2GI,AOML,USCG_HEALY,North
2016-10-01T03:00:00Z,1475290800,2016,3,0,275.125,275.125,71.136,-160.37421,1021.7,1.2,-999.0,yes,yes,no,300234063320260,BD2GI,AOML,USCG_HEALY,North
2016-10-01T04:00:28Z,1475294429,2016,4,0,275.167,275.167,71.1324,-160.32561,1021.3,1.13,-999.0,yes,yes,no,300234063320260,BD2GI,AOML,USCG_HEALY,North
2016-10-01T04:59:31Z,1475297971,2016,5,0,275.208,275.208,71.1284,-160.2764,1020.9,1.27,-999.0,yes,yes,no,300234063320260,BD2GI,AOML,USCG_HEALY,North
2016-10-01T06:00:00Z,1475301600,2016,6,0,275.25,275.25,71.1242,-160.22659,1020.5,1.44,-999.0,yes,yes,no,300234063320260,BD2GI,AOML,USCG_HEALY,North
2016-10-01T07:00:28Z,1475305229,2016,7,0,275.292,275.292,71.1192,-160.17419,1020.1,1.54,-999.0,yes,yes,no,300234063320260,BD2GI,AOML,USCG_HEALY,North
2016-10-01T07:59:31Z,1475308771,2016,8,0,275.333,275.333,71.1142,-160.12241,1019.5,1.51,-999.0,yes,yes,no,300234063320260,BD2GI,AOML,USCG_HEALY,North
2016-10-01T09:00:00Z,1475312400,2016,9,0,275.375,275.375,71.109,-160.0688,1019.1,1.51,-999.0,yes,yes,no,300234063320260,BD2GI,AOML,USCG_HEALY,North
2016-10-01T10:00:28Z,1475316029,2016,10,0,275.417,275.417,71.1034,-160.0186,1018.6,1.48,-999.0,yes,yes,no,300234063320260,BD2GI,AOML,USCG_HEALY,North
2016-10-01T10:59:31Z,1475319571,2016,11,0,275.458,275.458,71.0982,-159.96899,1018.2,1.51,-999.0,yes,yes,no,300234063320260,BD2GI,AOML,USCG_HEALY,North
2016-10-01T12:00:00Z,1475323200,2016,12,0,275.5,275.5,71.0934,-159.9182,1017.5,1.65,-999.0,yes,yes,no,300234063320260,BD2GI,AOML,USCG_HEALY,North
2016-10-01T13:00:28Z,1475326829,2016,13,0,275.542,275.542,71.0894,-159.87061,1016.8,1.78,-999.0,yes,yes,no,300234063320260,BD2GI,AOML,USCG_HEALY,North
2016-10-01T13:59:31Z,1475330371,2016,14,0,275.583,275.583,71.086,-159.821,1016.1,1.82,-999.0,yes,yes,no,300234063320260,BD2GI,AOML,USCG_HEALY,North
2016-10-01T15:00:00Z,1475334000,2016,15,0,275.625,275.625,71.084,-159.7764,1015.7,1.75,-999.0,yes,yes,no,300234063320260,BD2GI,AOML,USCG_HEALY,North
2016-10-01T16:00:28Z,1475337629,2016,16,0,275.667,275.667,71.0832,-159.7294,1015.3,1.68,-999.0,yes,yes,no,300234063320260,BD2GI,AOML,USCG_HEALY,North
2016-10-01T16:59:31Z,1475341171,2016,17,0,275.708,275.708,71.0844,-159.679,1014.9,1.65,-999.0,yes,yes,no,300234063320260,BD2GI,AOML,USCG_HEALY,North
2016-10-01T18:00:00Z,1475344800,2016,18,0,275.75,275.75,71.0868,-159.631,1014.3,1.75,-999.0,yes,yes,no,300234063320260,BD2GI,AOML,USCG_HEALY,North
2016-10-01T19:00:28Z,1475348429,2016,19,0,275.792,275.792,71.0896,-159.582,1013.9,1.92,-999.0,yes,yes,no,300234063320260,BD2GI,AOML,USCG_HEALY,North
2016-10-01T19:59:31Z,1475351971,2016,20,0,275.833,275.833,71.0946,-159.53081,1013.5,1.95,-999.0,yes,yes,no,300234063320260,BD2GI,AOML,USCG_HEALY,North
2016-10-01T21:00:00Z,1475355600,2016,21,0,275.875,275.875,71.0994,-159.4814,1013.0,1.95,-999.0,yes,yes,no,300234063320260,BD2GI,AOML,USCG_HEALY,North
2016-10-01T22:00:28Z,1475359229,2016,22,0,275.917,275.917,71.1044,-159.4286,1012.3,1.99,-999.0,yes,yes,no,300234063320260,BD2GI,AOML,USCG_HEALY,North
2016-10-01T22:59:31Z,1475362771,2016,23,0,275.958,275.958,71.1112,-159.37601,1011.7,1.99,-999.0,yes,yes,no,300234063320260,BD2GI,AOML,USCG_HEALY,North
2016-10-02T00:00:00Z,1475366400,2016,0,0,276.0,276.0,71.1184,-159.3284,1011.2,2.02,-999.0,yes,yes,no,300234063320260,BD2GI,AOML,USCG_HEALY,North
2016-10-02T01:00:28Z,1475370029,2016,1,0,276.042,276.042,71.1254,-159.27721,1010.8,2.02,-999.0,yes,yes,no,300234063320260,BD2GI,AOML,USCG_HEALY,North
2016-10-02T01:59:31Z,1475373571,2016,2,0,276.083,276.083,71.1334,-159.22099,1010.5,2.02,-999.0,yes,yes,no,300234063320260,BD2GI,AOML,USCG_HEALY,North
2016-10-02T03:00:00Z,1475377200,2016,3,0,276.125,276.125,71.1412,-159.1704,1010.2,2.02,-999.0,yes,yes,no,300234063320260,BD2GI,AOML,USCG_HEALY,North
2016-10-02T04:00:28Z,1475380829,2016,4,0,276.167,276.167,71.1496,-159.112,1009.9,2.02,-999.0,yes,yes,no,300234063320260,BD2GI,AOML,USCG_HEALY,North
2016-10-02T04:59:31Z,1475384371,2016,5,0,276.208,276.208,71.158,-159.05701,1009.4,2.02,-999.0,yes,yes,no,300234063320260,BD2GI,AOML,USCG_HEALY,North
2016-10-02T06:00:00Z,1475388000,2016,6,0,276.25,276.25,71.1662,-158.9996,1009.3,1.99,-999.0,yes,yes,no,300234063320260,BD2GI,AOML,USCG_HEALY,North
2016-10-02T07:00:28Z,1475391629,2016,7,0,276.292,276.292,71.1746,-158.942,1009.1,2.02,-999.0,yes,yes,no,300234063320260,BD2GI,AOML,USCG_HEALY,North
2016-10-02T07:59:31Z,1475395171,2016,8,0,276.333,276.333,71.1838,-158.8898,1008.8,2.02,-999.0,yes,yes,no,300234063320260,BD2GI,AOML,USCG_HEALY,North
2016-10-02T09:00:00Z,1475398800,2016,9,0,276.375,276.375,71.1932,-158.84219,1008.7,2.02,-999.0,yes,yes,no,300234063320260,BD2GI,AOML,USCG_HEALY,North
2016-10-02T10:00:28Z,1475402429,2016,10,0,276.417,276.417,71.2032,-158.79221,1008.2,2.02,-999.0,yes,yes,no,300234063320260,BD2GI,AOML,USCG_HEALY,North
2016-10-02T10:59:31Z,1475405971,2016,11,0,276.458,276.458,71.213,-158.7426,1008.0,1.99,-999.0,yes,yes,no,300234063320260,BD2GI,AOML,USCG_HEALY,North
2016-10-02T12:00:00Z,1475409600,2016,12,0,276.5,276.5,71.2234,-158.6938,1007.6,1.99,-999.0,yes,yes,no,300234063320260,BD2GI,AOML,USCG_HEALY,North
2016-10-02T13:00:28Z,1475413229,2016,13,0,276.542,276.542,71.2342,-158.64461,1007.3,1.99,-999.0,yes,yes,no,300234063320260,BD2GI,AOML,USCG_HEALY,North
2016-10-02T13:59:31Z,1475416771,2016,14,0,276.583,276.583,71.244,-158.5976,1007.3,2.02,-999.0,yes,yes,no,300234063320260,BD2GI,AOML,USCG_HEALY,North
2016-10-02T15:00:00Z,1475420400,2016,15,0,276.625,276.625,71.2536,-158.5488,1007.0,2.02,-999.0,yes,yes,no,300234063320260,BD2GI,AOML,USCG_HEALY,North
2016-10-02T16:00:28Z,1475424029,2016,16,0,276.667,276.667,71.264,-158.5002,1006.9,2.02,-999.0,yes,yes,no,300234063320260,BD2GI,AOML,USCG_HEALY,North
2016-10-02T16:59:31Z,1475427571,2016,17,0,276.708,276.708,71.273,-158.448,1007.1,2.02,-999.0,yes,yes,no,300234063320260,BD2GI,AOML,USCG_HEALY,North
2016-10-02T18:00:00Z,1475431200,2016,18,0,276.75,276.75,71.2816,-158.3958,1007.2,2.06,-999.0,yes,yes,no,300234063320260,BD2GI,AOML,USCG_HEALY,North
2016-10-02T19:00:28Z,1475434829,2016,19,0,276.792,276.792,71.2908,-158.345,1007.1,2.09,-999.0,yes,yes,no,300234063320260,BD2GI,AOML,USCG_HEALY,North
2016-10-02T19:59:31Z,1475438371,2016,20,0,276.833,276.833,71.3,-158.293,1007.6,2.09,-999.0,yes,yes,no,300234063320260,BD2GI,AOML,USCG_HEALY,North
2016-10-02T21:00:00Z,1475442000,2016,21,0,276.875,276.875,71.3088,-158.2426,1007.6,2.13,-999.0,yes,yes,no,300234063320260,BD2GI,AOML,USCG_HEALY,North
2016-10-02T22:00:28Z,1475445629,2016,22,0,276.917,276.917,71.3168,-158.1918,1007.7,2.13,-999.0,yes,yes,no,300234063320260,BD2GI,AOML,USCG_HEALY,North
2016-10-02T22:59:31Z,1475449171,2016,23,0,276.958,276.958,71.3248,-158.1436,1007.7,2.13,-999.0,yes,yes,no,300234063320260,BD2GI,AOML,USCG_HEALY,North
2016-10-03T00:00:00Z,1475452800,2016,0,0,277.0,277.0,71.3338,-158.0986,1007.8,2.13,-999.0,yes,yes,no,300234063320260,BD2GI,AOML,USCG_HEALY,North
2016-10-03T01:00:28Z,1475456429,2016,1,0,277.042,277.042,71.3428,-158.05321,1008.0,2.02,-999.0,yes,yes,no,300234063320260,BD2GI,AOML,USCG_HEALY,North
2016-10-03T01:59:31Z,1475459971,2016,2,0,277.083,277.083,71.3514,-158.00661,1008.2,1.99,-999.0,yes,yes,no,300234063320260,BD2GI,AOML,USCG_HEALY,North
2016-10-03T03:00:00Z,1475463600,2016,3,0,277.125,277.125,71.359,-157.95579,1008.6,1.99,-999.0,yes,yes,no,300234063320260,BD2GI,AOML,USCG_HEALY,North
2016-10-03T04:00:28Z,1475467229,2016,4,0,277.167,277.167,71.3658,-157.9082,1009.0,1.99,-999.0,yes,yes,no,300234063320260,BD2GI,AOML,USCG_HEALY,North
2016-10-03T04:59:31Z,1475470771,2016,5,0,277.208,277.208,71.373,-157.8604,1009.3,1.89,-999.0,yes,yes,no,300234063320260,BD2GI,AOML,USCG_HEALY,North
2016-10-03T06:00:00Z,1475474400,2016,6,0,277.25,277.25,71.3796,-157.8158,1010.1,1.44,-999.0,yes,yes,no,300234063320260,BD2GI,AOML,USCG_HEALY,North
2016-10-03T07:00:28Z,1475478029,2016,7,0,277.292,277.292,71.3858,-157.7708,1010.4,1.41,-999.0,yes,yes,no,300234063320260,BD2GI,AOML,USCG_HEALY,North
2016-10-03T07:59:31Z,1475481571,2016,8,0,277.333,277.333,71.3906,-157.7296,1011.0,1.41,-999.0,yes,yes,no,300234063320260,BD2GI,AOML,USCG_HEALY,North
2016-10-03T09:00:00Z,1475485200,2016,9,0,277.375,277.375,71.3954,-157.69,1011.4,1.48,-999.0,yes,yes,no,300234063320260,BD2GI,AOML,USCG_HEALY,North
2016-10-03T10:00:28Z,1475488829,2016,10,0,277.417,277.417,71.3994,-157.65401,1011.8,1.54,-999.0,yes,yes,no,300234063320260,BD2GI,AOML,USCG_HEALY,North
2016-10-03T10:59:31Z,1475492371,2016,11,0,277.458,277.458,71.4036,-157.617,1012.4,1.61,-999.0,yes,yes,no,300234063320260,BD2GI,AOML,USCG_HEALY,North
2016-10-03T12:00:00Z,1475496000,2016,12,0,277.5,277.5,71.4076,-157.5824,1012.6,1.68,-999.0,yes,yes,no,300234063320260,BD2GI,AOML,USCG_HEALY,North
2016-10-03T13:00:28Z,1475499629,2016,13,0,277.542,277.542,71.4116,-157.545,1013.0,1.68,-999.0,yes,yes,no,300234063320260,BD2GI,AOML,USCG_HEALY,North
2016-10-03T13:59:31Z,1475503171,2016,14,0,277.583,277.583,71.4156,-157.50619,1013.5,1.68,-999.0,yes,yes,no,300234063320260,BD2GI,AOML,USCG_HEALY,North
2016-10-03T15:00:00Z,1475506800,2016,15,0,277.625,277.625,71.4198,-157.465,1014.1,1.68,-999.0,yes,yes,no,300234063320260,BD2GI,AOML,USCG_HEALY,North
2016-10-03T16:00:28Z,1475510429,2016,16,0,277.667,277.667,71.4246,-157.422,1014.4,1.75,-999.0,yes,yes,no,300234063320260,BD2GI,AOML,USCG_HEALY,North
2016-10-03T16:59:31Z,1475513971,2016,17,0,277.708,277.708,71.4296,-157.3788,1014.8,1.71,-999.0,yes,yes,no,300234063320260,BD2GI,AOML,USCG_HEALY,North
2016-10-03T18:00:00Z,1475517600,2016,18,0,277.75,277.75,71.4354,-157.33701,1015.3,1.71,-999.0,yes,yes,no,300234063320260,BD2GI,AOML,USCG_HEALY,North
2016-10-03T19:00:28Z,1475521229,2016,19,0,277.792,277.792,71.4424,-157.2934,1015.9,1.75,-999.0,yes,yes,no,300234063320260,BD2GI,AOML,USCG_HEALY,North
2016-10-03T19:59:31Z,1475524771,2016,20,0,277.833,277.833,71.4502,-157.2512,1016.3,1.75,-999.0,yes,yes,no,300234063320260,BD2GI,AOML,USCG_HEALY,North
2016-10-03T21:00:00Z,1475528400,2016,21,0,277.875,277.875,71.4588,-157.21381,1016.6,1.34,-999.0,yes,yes,no,300234063320260,BD2GI,AOML,USCG_HEALY,North
2016-10-03T22:00:28Z,1475532029,2016,22,0,277.917,277.917,71.4688,-157.1766,1016.7,1.3,-999.0,yes,yes,no,300234063320260,BD2GI,AOML,USCG_HEALY,North
2016-10-03T22:59:31Z,1475535571,2016,23,0,277.958,277.958,71.478,-157.14439,1016.9,1.34,-999.0,yes,yes,no,300234063320260,BD2GI,AOML,USCG_HEALY,North
2016-10-04T00:00:00Z,1475539200,2016,0,0,278.0,278.0,71.487,-157.11279,1017.0,1.37,-999.0,yes,yes,no,300234063320260,BD2GI,AOML,USCG_HEALY,North
2016-10-04T01:00:28Z,1475542829,2016,1,0,278.042,278.042,71.4954,-157.0824,1017.3,1.37,-999.0,yes,yes,no,300234063320260,BD2GI,AOML,USCG_HEALY,North
2016-10-04T01:59:31Z,1475546371,2016,2,0,278.083,278.083,71.503,-157.04961,1017.6,1.41,-999.0,yes,yes,no,300234063320260,BD2GI,AOML,USCG_HEALY,North
2016-10-04T03:00:00Z,1475550000,2016,3,0,278.125,278.125,71.5106,-157.018,1017.8,1.44,-999.0,yes,yes,no,300234063320260,BD2GI,AOML,USCG_HEALY,North
2016-10-04T04:00:28Z,1475553629,2016,4,0,278.167,278.167,71.5182,-156.985,1018.1,1.37,-999.0,yes,yes,no,300234063320260,BD2GI,AOML,USCG_HEALY,North
2016-10-04T04:59:31Z,1475557171,2016,5,0,278.208,278.208,71.5264,-156.95399,1018.5,1.06,-999.0,yes,yes,no,300234063320260,BD2GI,AOML,USCG_HEALY,North
2016-10-04T06:00:00Z,1475560800,2016,6,0,278.25,278.25,71.5346,-156.924,1018.5,1.0,-999.0,yes,yes,no,300234063320260,BD2GI,AOML,USCG_HEALY,North
2016-10-04T07:00:28Z,1475564429,2016,7,0,278.292,278.292,71.543,-156.895,1019.0,0.79,-999.0,yes,yes,no,300234063320260,BD2GI,AOML,USCG_HEALY,North
2016-10-04T07:59:31Z,1475567971,2016,8,0,278.333,278.333,71.5506,-156.8696,1019.3,0.83,-999.0,yes,yes,no,300234063320260,BD2GI,AOML,USCG_HEALY,North
2016-10-04T09:00:00Z,1475571600,2016,9,0,278.375,278.375,71.558,-156.84261,1019.6,1.0,-999.0,yes,yes,no,300234063320260,BD2GI,AOML,USCG_HEALY,North
2016-10-04T10:00:28Z,1475575229,2016,10,0,278.417,278.417,71.565,-156.8174,1019.7,1.03,-999.0,yes,yes,no,300234063320260,BD2GI,AOML,USCG_HEALY,North
2016-10-04T10:59:31Z,1475578771,2016,11,0,278.458,278.458,71.5724,-156.79201,1019.7,1.17,-999.0,yes,yes,no,300234063320260,BD2GI,AOML,USCG_HEALY,North
2016-10-04T12:00:00Z,1475582400,2016,12,0,278.5,278.5,71.5798,-156.765,1019.9,1.1,-999.0,yes,yes,no,300234063320260,BD2GI,AOML,USCG_HEALY,North
2016-10-04T13:00:28Z,1475586029,2016,13,0,278.542,278.542,71.5868,-156.737,1020.1,1.0,-999.0,yes,yes,no,300234063320260,BD2GI,AOML,USCG_HEALY,North
2016-10-04T13:59:31Z,1475589571,2016,14,0,278.583,278.583,71.5942,-156.709,1020.0,1.03,-999.0,yes,yes,no,300234063320260,BD2GI,AOML,USCG_HEALY,North
2016-10-04T15:00:00Z,1475593200,2016,15,0,278.625,278.625,71.6004,-156.68159,1019.9,1.0,-999.0,yes,yes,no,300234063320260,BD2GI,AOML,USCG_HEALY,North
2016-10-04T16:00:28Z,1475596829,2016,16,0,278.667,278.667,71.6048,-156.6564,1019.9,1.1,-999.0,yes,yes,no,300234063320260,BD2GI,AOML,USCG_HEALY,North
2016-10-04T16:59:31Z,1475600371,2016,17,0,278.708,278.708,71.6092,-156.635,1019.7,1.0,-999.0,yes,yes,no,300234063320260,BD2GI,AOML,USCG_HEALY,North
2016-10-04T18:00:00Z,1475604000,2016,18,0,278.75,278.75,71.614,-156.614,1019.6,0.89,-999.0,yes,yes,no,300234063320260,BD2GI,AOML,USCG_HEALY,North
2016-10-04T19:00:28Z,1475607629,2016,19,0,278.792,278.792,71.6182,-156.59019,1019.7,1.0,-999.0,yes,yes,no,300234063320260,BD2GI,AOML,USCG_HEALY,North
2016-10-04T19:59:31Z,1475611171,2016,20,0,278.833,278.833,71.6208,-156.5658,1019.8,0.11,-999.0,yes,yes,no,300234063320260,BD2GI,AOML,USCG_HEALY,North
2016-10-04T21:00:00Z,1475614800,2016,21,0,278.875,278.875,71.6216,-156.54421,1020.0,-0.2,-999.0,yes,yes,no,300234063320260,BD2GI,AOML,USCG_HEALY,North
2016-10-04T22:00:28Z,1475618429,2016,22,0,278.917,278.917,71.6238,-156.51401,1020.3,-0.27,-999.0,yes,yes,no,300234063320260,BD2GI,AOML,USCG_HEALY,North
2016-10-04T22:59:31Z,1475621971,2016,23,0,278.958,278.958,71.625,-156.4856,1020.1,-0.2,-999.0,yes,yes,no,300234063320260,BD2GI,AOML,USCG_HEALY,North
2016-10-05T00:00:00Z,1475625600,2016,0,0,279.0,279.0,71.6268,-156.45441,1020.1,-0.23,-999.0,yes,yes,no,300234063320260,BD2GI,AOML,USCG_HEALY,North
2016-10-05T01:00:28Z,1475629229,2016,1,0,279.042,279.042,71.629,-156.42,1020.2,-0.17,-999.0,yes,yes,no,300234063320260,BD2GI,AOML,USCG_HEALY,North
2016-10-05T01:59:31Z,1475632771,2016,2,0,279.083,279.083,71.6316,-156.3856,1020.2,-0.17,-999.0,yes,yes,no,300234063320260,BD2GI,AOML,USCG_HEALY,North
2016-10-05T03:00:00Z,1475636400,2016,3,0,279.125,279.125,71.6356,-156.3484,1020.3,-0.13,-999.0,yes,yes,no,300234063320260,BD2GI,AOML,USCG_HEALY,North
2016-10-05T04:00:28Z,1475640029,2016,4,0,279.167,279.167,71.6406,-156.3062,1020.4,-0.1,-999.0,yes,yes,no,300234063320260,BD2GI,AOML,USCG_HEALY,North
2016-10-05T04:59:31Z,1475643571,2016,5,0,279.208,279.208,71.6432,-156.2588,1020.3,-0.03,-999.0,yes,yes,no,300234063320260,BD2GI,AOML,USCG_HEALY,North
2016-10-05T06:00:00Z,1475647200,2016,6,0,279.25,279.25,71.6446,-156.2144,1020.4,-0.03,-999.0,yes,yes,no,300234063320260,BD2GI,AOML,USCG_HEALY,North
2016-10-05T07:00:28Z,1475650829,2016,7,0,279.292,279.292,71.6472,-156.1696,1020.4,0.04,-999.0,yes,yes,no,300234063320260,BD2GI,AOML,USCG_HEALY,North
2016-10-05T07:59:31Z,1475654371,2016,8,0,279.333,279.333,71.6506,-156.123,1020.3,0.14,-999.0,yes,yes,no,300234063320260,BD2GI,AOML,USCG_HEALY,North
2016-10-05T09:00:00Z,1475658000,2016,9,0,279.375,279.375,71.6536,-156.0818,1020.6,0.21,-999.0,yes,yes,no,300234063320260,BD2GI,AOML,USCG_HEALY,North
2016-10-05T10:00:28Z,1475661629,2016,10,0,279.417,279.417,71.6562,-156.0434,1021.0,0.38,-999.0,yes,yes,no,300234063320260,BD2GI,AOML,USCG_HEALY,North
2016-10-05T10:59:31Z,1475665171,2016,11,0,279.458,279.458,71.6592,-156.0094,1021.1,-0.17,-999.0,yes,yes,no,300234063320260,BD2GI,AOML,USCG_HEALY,North
2016-10-05T12:00:00Z,1475668800,2016,12,0,279.5,279.5,71.6624,-155.97639,1021.3,-0.03,-999.0,yes,yes,no,300234063320260,BD2GI,AOML,USCG_HEALY,North
2016-10-05T13:00:28Z,1475672429,2016,13,0,279.542,279.542,71.6656,-155.94299,1021.6,-0.37,-999.0,yes,yes,no,300234063320260,BD2GI,AOML,USCG_HEALY,North
2016-10-05T13:59:31Z,1475675971,2016,14,0,279.583,279.583,71.6684,-155.912,1021.8,-0.47,-999.0,yes,yes,no,300234063320260,BD2GI,AOML,USCG_HEALY,North
2016-10-05T15:00:00Z,1475679600,2016,15,0,279.625,279.625,71.6726,-155.8856,1022.2,-0.51,-999.0,yes,yes,no,300234063320260,BD2GI,AOML,USCG_HEALY,North
2016-10-05T16:00:28Z,1475683229,2016,16,0,279.667,279.667,71.6766,-155.8606,1022.2,-0.47,-999.0,yes,yes,no,300234063320260,BD2GI,AOML,USCG_HEALY,North
2016-10-05T16:59:31Z,1475686771,2016,17,0,279.708,279.708,71.6808,-155.8322,1022.4,-0.44,-999.0,yes,yes,no,300234063320260,BD2GI,AOML,USCG_HEALY,North
2016-10-05T18:00:00Z,1475690400,2016,18,0,279.75,279.75,71.6854,-155.80321,1023.0,-0.27,-999.0,yes,yes,no,300234063320260,BD2GI,AOML,USCG_HEALY,North
2016-10-05T19:00:28Z,1475694029,2016,19,0,279.792,279.792,71.6898,-155.7744,1023.2,-0.17,-999.0,yes,yes,no,300234063320260,BD2GI,AOML,USCG_HEALY,North
2016-10-05T19:59:31Z,1475697571,2016,20,0,279.833,279.833,71.6936,-155.7482,1023.8,-0.17,-999.0,yes,yes,no,300234063320260,BD2GI,AOML,USCG_HEALY,North
2016-10-05T21:00:00Z,1475701200,2016,21,0,279.875,279.875,71.6968,-155.7244,1024.3,-0.41,-999.0,yes,yes,no,300234063320260,BD2GI,AOML,USCG_HEALY,North
2016-10-05T22:00:28Z,1475704829,2016,22,0,279.917,279.917,71.7,-155.7046,1024.7,-0.41,-999.0,yes,yes,no,300234063320260,BD2GI,AOML,USCG_HEALY,North
2016-10-05T22:59:31Z,1475708371,2016,23,0,279.958,279.958,71.7036,-155.688,1025.0,-0.37,-999.0,yes,yes,no,300234063320260,BD2GI,AOML,USCG_HEALY,North
2016-10-06T00:00:00Z,1475712000,2016,0,0,280.0,280.0,71.7068,-155.6716,1025.4,-0.34,-999.0,yes,yes,no,300234063320260,BD2GI,AOML,USCG_HEALY,North
2016-10-06T01:00:28Z,1475715629,2016,1,0,280.042,280.042,71.7106,-155.65221,1025.7,-0.37,-999.0,yes,yes,no,300234063320260,BD2GI,AOML,USCG_HEALY,North
2016-10-06T01:59:31Z,1475719171,2016,2,0,280.083,280.083,71.7138,-155.629,1026.0,-0.3,-999.0,yes,yes,no,300234063320260,BD2GI,AOML,USCG_HEALY,North
2016-10-06T03:00:00Z,1475722800,2016,3,0,280.125,280.125,71.7164,-155.6026,1026.5,-0.27,-999.0,yes,yes,no,300234063320260,BD2GI,AOML,USCG_HEALY,North
2016-10-06T04:00:28Z,1475726429,2016,4,0,280.167,280.167,71.7184,-155.57179,1026.8,-0.13,-999.0,yes,yes,no,300234063320260,BD2GI,AOML,USCG_HEALY,North
2016-10-06T04:59:31Z,1475729971,2016,5,0,280.208,280.208,71.7198,-155.53619,1027.0,0.18,-999.0,yes,yes,no,300234063320260,BD2GI,AOML,USCG_HEALY,North
2016-10-06T06:00:00Z,1475733600,2016,6,0,280.25,280.25,71.7208,-155.4964,1026.9,0.14,-999.0,yes,yes,no,300234063320260,BD2GI,AOML,USCG_HEALY,North
2016-10-06T07:00:28Z,1475737229,2016,7,0,280.292,280.292,71.722,-155.45579,1027.0,0.21,-999.0,yes,yes,no,300234063320260,BD2GI,AOML,USCG_HEALY,North
2016-10-06T07:59:31Z,1475740771,2016,8,0,280.333,280.333,71.7242,-155.4162,1027.2,0.14,-999.0,yes,yes,no,300234063320260,BD2GI,AOML,USCG_HEALY,North